Shoreham, United Kingdom

9:39 AM GMT on February 21, 2018 (GMT +0000)
Shoreham

Weather History for EGKA - September, 2012

Change the Weather History Date:

Saturday, September 15, 2012

  Actual Average Record
Temperature  
Mean Temperature 54 °F -  
Max Temperature 66 °F 60 °F 77 °F (2016)
Min Temperature 41 °F 52 °F 41 °F (2012)
Degree Days  
Heating Degree Days 12    
Growing Degree Days 4 (Base 50)    
Moisture  
Dew Point 52 °F    
Average Humidity 74    
Maximum Humidity 88    
Minimum Humidity 63    
Precipitation  
Precipitation 0.00 in - - ()
Sea Level Pressure  
Sea Level Pressure 30.07 in    
Wind  
Wind Speed 8 mph ()    
Max Wind Speed 20 mph    
Max Gust Speed -    
Visibility 6.2 miles    
Events      
Averages and records for this station are not official NWS values.
T = Trace of Precipitation, MM = Missing Value Source: Averaged Metar Reports

Daily Weather History Graph

Daily Weather History Graph

Search for Another Location

Airport or City:

Trip Planner

Search our weather history database for the weather conditions in past years. The results will help you decide how hot, cold, wet, or windy it might be!

Date:

Astronomy

Sep. 15, 2012 Rise Set
Actual Time 6:36 AM BST 7:14 PM BST
Civil Twilight 6:03 AM BST 7:47 PM BST
Nautical Twilight 5:24 AM BST 8:26 PM BST
Astronomical Twilight 4:42 AM BST 9:08 PM BST
Moon 5:51 AM BST (9/15) 6:31 PM BST (9/15)
Length of Visible Light 13h 43m
Length of Day
12h 37m
Waning Crescent, 1% of the Moon is Illuminated
Sep 15
Waning Crescent
Sep 16
New
Sep 22
First Quarter
Sep 30
Full
Oct 8
Last Quarter

Hourly Weather History & Observations

Time (BST) Temp. Dew Point Humidity Pressure Visibility Wind Dir Wind Speed Gust Speed Precip Events Conditions
12:50 AM 45 °F 41 °F 82% 30.07 in - West 3.5 mph - -  
3:50 AM 47 °F 45 °F 88% 30.08 in - North 4.6 mph - -  
6:50 AM 46 °F 43 °F 87% 30.08 in - North 6.9 mph - -  
8:20 AM 51.8 °F 48.2 °F 88% 30.09 in - North 2.3 mph - N/A   Clear
8:50 AM 55.4 °F 50.0 °F 82% 30.09 in - NE 2.3 mph - N/A   Clear
9:20 AM 57.2 °F 50.0 °F 77% 30.09 in - NNE 3.5 mph - N/A   Clear
9:50 AM 60 °F 51 °F 63% 30.10 in - South 3.5 mph - -  
9:50 AM 60.8 °F 51.8 °F 72% 30.09 in - SSE 1.2 mph - N/A   Clear
10:20 AM 60.8 °F 51.8 °F 72% 30.09 in - South 4.6 mph - N/A   Clear
10:50 AM 62.6 °F 51.8 °F 68% 30.09 in - SSW 8.1 mph - N/A   Clear
11:20 AM 62.6 °F 51.8 °F 68% 30.09 in 6.2 mi SSW 9.2 mph - N/A   Partly Cloudy
11:50 AM 62.6 °F 51.8 °F 68% 30.09 in 6.2 mi SW 11.5 mph - N/A   Partly Cloudy
12:20 PM 64.4 °F 55.4 °F 73% 30.09 in 6.2 mi SW 12.7 mph - N/A   Partly Cloudy
12:50 PM 64 °F 56 °F 67% 30.08 in - SW 13.8 mph - -  
12:50 PM 64.4 °F 55.4 °F 73% 30.06 in 6.2 mi SW 13.8 mph - N/A   Partly Cloudy
1:20 PM 64.4 °F 55.4 °F 73% 30.06 in 6.2 mi SW 13.8 mph - N/A   Partly Cloudy
1:50 PM 64.4 °F 55.4 °F 73% 30.06 in 6.2 mi SW 15.0 mph - N/A   Partly Cloudy
2:20 PM 66.2 °F 53.6 °F 64% 30.06 in 6.2 mi SW 15.0 mph - N/A   Partly Cloudy
2:50 PM 64.4 °F 55.4 °F 73% 30.04 in 6.2 mi SW 15.0 mph - N/A   Partly Cloudy
3:20 PM 66.2 °F 55.4 °F 68% 30.04 in 6.2 mi SW 17.3 mph - N/A   Partly Cloudy
3:50 PM 65 °F 56 °F 65% 30.05 in - SW 16.1 mph - -  
3:50 PM 64.4 °F 55.4 °F 73% 30.04 in 6.2 mi SW 16.1 mph - N/A   Partly Cloudy
4:20 PM 64.4 °F 55.4 °F 73% 30.04 in 6.2 mi SW 19.6 mph - N/A   Partly Cloudy
4:50 PM 64.4 °F 55.4 °F 73% 30.04 in 6.2 mi WSW 16.1 mph - N/A   Partly Cloudy
5:20 PM 62.6 °F 55.4 °F 77% 30.04 in 6.2 mi SW 17.3 mph - N/A   Partly Cloudy
5:50 PM 62.6 °F 55.4 °F 77% 30.04 in 6.2 mi WSW 15.0 mph - N/A   Partly Cloudy
6:50 PM 61 °F 55 °F 73% 30.03 in - WSW 13.8 mph - -  
9:50 PM 55 °F 52 °F 87% 30.03 in - West 4.6 mph - -